Location: Oshawa
(43.9000°N, 78.8670°W)
Time: 10:33:26
(UTC-05:00)

ITAMSAT 1 - Visible Passes

Search period start: 16 January 2018 00:00
Search period end: 26 January 2018 00:00
Orbit: 783 x 797 km, 98.8° (Epoch: 15 January)

Date Brightness Start Highest point End Pass type
(mag) Time Alt. Az. Time Alt. Az. Time Alt. Az.
22 Jan 10.2 04:49:46 10° N 04:49:47 10° N 04:49:47 10° N visible
24 Jan 9.9 05:31:06 10° N 05:31:15 11° NNW 05:31:15 11° NNW visible
25 Jan 10.0 05:01:13 10° N 05:01:36 12° N 05:01:36 12° N visible
